Regional Weather Roundup
Issued by NWS

Home | Current Version | Previous Version | Text Only | Print | Product List | Glossary Off
Versions: 1 2 3 4 5 6 7 8 9 10 11 12 13 14 15 16 17 18 19 20 21 22 23 24 25 26 27 28 29 30 31 32 33 34 35 36 37 38 39 40 41 42 43 44 45 46 47 48 49 50

000
ASUS43 KMPX 271501
RWRMN
WEATHER ROUNDUP FOR MINNESOTA
NATIONAL WEATHER SERVICE TWIN CITIES/CHANHASSEN MN
1000 AM CDT THU JUL 27 2017


NOTE: "FAIR" INDICATES FEW OR NO CLOUDS BELOW 12,000 FEET WITH NO
SIGNIFICANT WEATHER AND/OR OBSTRUCTIONS TO VISIBILITY. N/A MEANS
CURRENT SKY AND/OR WEATHER CONDITIONS ARE NOT AVAILABLE.

MNZ060>063-068>070-271600-
   Twin Cities Metro

CITY           SKY/WX    TMP DP  RH WIND       PRES   REMARKS
TWIN CITIES    SUNNY     78  61  55 N6        30.08R
ST PAUL        MOSUNNY   78  62  57 VRB5      30.08R
CRYSTAL        SUNNY     77  58  51 N7        30.07S
BLAINE         SUNNY     77  63  61 CALM      30.08S
LAKEVILLE      SUNNY     75  63  64 NE5       30.08S
EDEN PRAIRIE   SUNNY     77  61  57 N7        30.08R
SOUTH ST PAUL  SUNNY     77  60  55 N3        30.07S
LAKE ELMO      FAIR      75  63  64 NE3       30.09R
$$
MNZ001>005-007-008-013>017-022>024-027-028-271600-
   Northwest Minnesota

CITY           SKY/WX    TMP DP  RH WIND       PRES   REMARKS
BEMIDJI        SUNNY     74  60  62 N3        30.14S
HALLOCK        SUNNY     73  64  73 NW3       30.12S
ROSEAU         MOSUNNY   72  64  78 CALM      30.13R
WARROAD        SUNNY     73  66  78 CALM      30.12F
CROOKSTON      CLOUDY    70  63  78 CALM      30.14S
FOSSTON        MOSUNNY   73  63  68 CALM      30.15S
DETROIT LAKES  SUNNY     73  63  68 N3        30.16S
MOORHEAD       SUNNY     72  63  73 CALM      30.14F
PARK RAPIDS    SUNNY     76  60  57 N6        30.14S
MAHNOMEN       FAIR      71  62  72 NW3       30.14F
$$
MNZ006-009>011-018-025>026-271600-
   North Central Minnesota

CITY           SKY/WX    TMP DP  RH WIND       PRES   REMARKS
BAUDETTE       SUNNY     75  62  64 N5        30.11S
FLAG ISLAND    SUNNY     73  63  68 CALM      30.10F
INTL FALLS     SUNNY     74  62  66 CALM      30.11S
WASKISH        PTSUNNY   72  64  78 W3        30.12S
BIG FORK       PTSUNNY   73  61  64 CALM      30.12S
LONGVILLE      SUNNY     73  63  68 CALM      30.13S
GRAND RAPIDS   SUNNY     72  62  71 NW3       30.14S
CRANE LAKE     SUNNY     70  63  78 CALM      30.12S
ORR            SUNNY     73  57  56 CALM      30.09S
COOK             N/A     72  63  73 CALM      30.12S
WALKER         FAIR      71  63  74 CALM      30.14S
$$
MNZ012-019>021-037-271600-
   Northeast Minnesota

CITY           SKY/WX    TMP DP  RH WIND       PRES   REMARKS
DULUTH         MOSUNNY   75  61  61 VRB5      30.11R
ELY            SUNNY     73  57  56 CALM      30.11S
HIBBING        SUNNY     73  59  61 CALM      30.11S
EVELETH        SUNNY     73  59  60 CALM      30.13R
DULUTH HARBOR  SUNNY     72  63  73 E3        30.10R
SILVER BAY     MOSUNNY   73  61  64 E8        30.09R
GRAND MARAIS     N/A     68  53  58 NE6       30.10R
G MARAIS ARPRT SUNNY     68  54  60 SE3       30.14R
$$
MNZ029>031-032-039>041-046>048-054>057-064-271600-
   West Central Minnesota

CITY           SKY/WX    TMP DP  RH WIND       PRES   REMARKS
FERGUS FALLS   SUNNY     73  61  64 NE5       30.13S
WHEATON        SUNNY     73  63  68 CALM      30.15S
MORRIS         SUNNY     75  63  64 CALM      30.13R
ALEXANDRIA     SUNNY     75  61  61 CALM      30.15S
ELBOW LAKE     HAZE      73  64  73 CALM      30.14S VSB 1/2
WADENA         SUNNY     73  61  64 CALM      30.13F
GLENWOOD       SUNNY     75  63  64 CALM      30.14S
APPLETON       SUNNY     75  63  64 CALM      30.13R
BENSON         SUNNY     77  63  61 CALM      30.14S
ORTONVILLE     SUNNY     73  63  68 MISG      30.14R
MADISON        SUNNY     75  66  73 CALM      30.13S
WILLMAR        FAIR      75  63  64 NE3       30.13S
$$
MNZ033>034-036-042>043-049>051-058-059-271600-
   Central Minnesota

CITY           SKY/WX    TMP DP  RH WIND       PRES   REMARKS
ST CLOUD       SUNNY     76  63  64 NE5       30.11S
SAUK CENTRE    FAIR      74  62  67 CALM      30.13S
PAYNESVILLE    SUNNY     76  61  60 E6        30.12F
AITKIN         SUNNY     73  63  68 CALM      30.11S
PINE RIVER     SUNNY     73  63  68 N5        30.15F
BRAINERD       SUNNY     74  62  66 VRB3      30.12S
STAPLES        SUNNY     73  61  64 CALM      30.13S
LONG PRAIRIE   FAIR      72  63  73 CALM      30.14S
LITTLE FALLS   SUNNY     72  61  68 E5        30.13S
LITCHFIELD     SUNNY     75  64  69 NE3       30.11F
BUFFALO        SUNNY     75  60  59 NE3       30.11S
MAPLE LAKE     SUNNY     77  64  65 CALM      30.11S
HUTCHINSON     SUNNY     76  64  66 NE3       30.12R
$$
MNZ037-044-045-052-053-271600-
   East Central Minnesota

CITY           SKY/WX    TMP DP  RH WIND       PRES   REMARKS
PRINCETON      SUNNY     77  63  61 NE5       30.11S
MORA           SUNNY     73  61  64 CALM      30.13R
CAMBRIDGE      SUNNY     77  61  57 N3        30.09R
RUSH CITY      SUNNY     73  62  67 N3        30.11R
MOOSE LAKE     SUNNY     73  61  64 CALM      30.09S
HINCKLEY       FAIR      75  63  64 CALM      30.11R
CLOQUET        SUNNY     73  59  60 CALM      30.11S
MCGREGOR       SUNNY     73  63  68 CALM      30.13R
$$
MNZ071>073-080-081-089-090-097-098-271600-
   Southwest Minnesota

CITY           SKY/WX    TMP DP  RH WIND       PRES   REMARKS
MONTEVIDEO     SUNNY     81  64  57 CALM      30.13S
CANBY          SUNNY     74  62  65 CALM      30.15S
MARSHALL       SUNNY     71  64  78 N3        30.13S
REDWOOD FALLS  SUNNY     76  62  62 VRB3      30.11S
OLIVIA         SUNNY     73  63  68 CALM      30.11S
PIPESTONE      SUNNY     73  63  68 SE3       30.14S
WINDOM         SUNNY     73  63  68 N6        30.12S
WORTHINGTON    SUNNY     73  63  70 NE7       30.14R
JACKSON        SUNNY     72  63  73 CALM      30.12S
TRACY          SUNNY     72  65  79 N3        30.14R
SLAYTON        HVY RAIN  70  55  59 N5        30.14S
$$
MNZ065>067-074>077-082>085-091>093-271600-
   South Central Minnesota

CITY           SKY/WX    TMP DP  RH WIND       PRES   REMARKS
MANKATO        SUNNY     74  65  73 VRB5      30.10R
NEW ULM        SUNNY     73  63  68 N5        30.10S
ST JAMES       SUNNY     73  64  73 NW3       30.11S
FAIRMONT       SUNNY     75  65  70 N3        30.10R
GLENCOE        SUNNY     75  67  78 N3        30.10S
FARIBAULT      SUNNY     73  66  78 N3        30.08S
OWATONNA       SUNNY     73  66  78 CALM      30.08S
WASECA         SUNNY     73  64  73 N5        30.10R
ALBERT LEA     SUNNY     75  66  73 NE5       30.08R
$$
MNZ078>079-086>088-094>096-271600-
   Southeast Minnesota

CITY           SKY/WX    TMP DP  RH WIND       PRES   REMARKS
ROCHESTER      SUNNY     75  65  70 N5        30.08R
RED WING       SUNNY     75  63  64 NE3       30.05S
STANTON        SUNNY     74  64  73 N3        30.07R
DODGE CENTER   SUNNY     73  64  73 CALM      30.08S
WINONA         SUNNY     73  64  73 CALM      30.05S
AUSTIN         SUNNY     75  64  69 NE5       30.08R
PRESTON        SUNNY     73  60  62 NE5       30.07S
$$
ABBREVIATIONS USED IN REMARKS
   TC - TEMPERATURES IN CELSIUS
  WCI - WIND CHILL INDEX
   HX - HEAT INDEX
  VSB - VISIBILITY
$$




USA.gov is the U.S. government's official web portal to all federal, state and local government web resources and services.